Regional Weather Roundup
Issued by NWS

Home | Current Version | Previous Version | Graphics & Text | Print | Product List | Glossary On
Versions: 1 2 3 4 5 6 7 8 9 10 11 12 13 14 15 16 17 18 19 20 21 22 23 24 25 26 27 28 29 30 31 32 33 34 35 36 37 38 39 40 41 42 43 44 45 46 47 48 49 50
000
ASUS43 KFSD 231710
RWRSD

WEATHER ROUNDUP FOR SOUTH DAKOTA
NATIONAL WEATHER SERVICE SIOUX FALLS SD
1100 AM CST FRI FEB 23 2018

NOTE: "FAIR" INDICATES FEW OR NO CLOUDS BELOW 12,000 FEET WITH NO
SIGNIFICANT WEATHER AND/OR OBSTRUCTIONS TO VISIBILITY.


SDZ001>005-009-010-012>017-231800-
NORTHWEST AND NORTH CENTRAL SOUTH DAKOTA

CITY           SKY/WX    TMP DP  RH WIND       PRES   REMARKS
BUFFALO          N/A     -2 -10  69 SE5       30.09S WCI -12
FAITH            N/A      3  -4  72 NW13      30.20F WCI -14
MOBRIDGE       SUNNY      9   0  67 W6        30.24R WCI  -1
$$

SDZ012>016-024>037-041>051-057-063-072>074-231800-
SOUTHWEST AND SOUTH CENTRAL SOUTH DAKOTA

CITY           SKY/WX    TMP DP  RH WIND       PRES   REMARKS
RAPID CTY ARPT SUNNY      8   2  76 E3        30.19R
PIERRE         SUNNY      7   2  80 W9        30.28R WCI  -7
CUSTER         SUNNY     22  -1  36 CALM      30.02S
ELLSWORTH AFB  SUNNY      7  -1  71 CALM      30.17S
PHILIP         SUNNY      6  -1  73 W9        30.27S WCI  -8
PINE RIDGE     SUNNY     10   7  87 CALM      30.20S
SPEARFISH        N/A     12  -4  48 CALM      30.10F
WINNER         FAIR      11   2  67 W9        30.28R WCI  -2
$$

SDZ004>011-016>023-039-040-231800-
NORTHEAST SOUTH DAKOTA

CITY           SKY/WX    TMP DP  RH WIND       PRES   REMARKS
ABERDEEN       SUNNY     19  12  74 W3        30.26R
WATERTOWN      CLOUDY    18  17  96 NW13      30.19F FOG     WCI   5
SISSETON         N/A     21  15  78 NW12      30.22R WCI   9
$$

SDZ017-020-022-023-036>040-048>070-231800-
SOUTHEAST SOUTH DAKOTA

CITY           SKY/WX    TMP DP  RH WIND       PRES   REMARKS
SIOUX FALLS    CLOUDY    21  18  88 NW10      30.25R WCI  10
HURON          SUNNY     15  10  80 NW15      30.27S WCI   0
CHAMBERLAIN    LGT SNOW  10   8  92 SW7       30.29S WCI  -1
MITCHELL       CLOUDY    15  11  83 W10       30.29R WCI   2
YANKTON        CLOUDY    21  17  84 W12       30.30R WCI   9
$$

ABBREVIATIONS USED IN REMARKS
   TC - TEMPERATURE IN CELSIUS
  WCI - WIND CHILL INDEX
   HX - HEAT INDEX
  VSB - VISIBILITY




USA.gov is the U.S. government's official web portal to all federal, state and local government web resources and services.